Location: Antioch
(38.0049°N, 121.8058°W)
Time: 06:02:09
(UTC+00:00)

Cosmos 2242 Rocket - Pass Details

Date: 11 February 2026
Orbit: 613 x 645 km, 82.5° (Epoch: 5 March)

Event Time Altitude Azimuth Distance (km) Brightness Sun altitude
Exits shadow 13:49:40 19° 309° (NW) 1,484 5.0 -14.7°
Maximum altitude 13:51:36 26° 271° (W) 1,226 4.5 -14.3°
Drops below altitude 10° 13:55:17 10° 214° (SW) 1,997 5.9 -13.6°
Sets 13:57:48 0° 202° (SSW) 2,905 6.9 -13.1°
